sat.trackr.live / text

‹ back to catalog

STARLINK-32768

NORAD 62503 · 2025-003S

PAYLOAD ACTIVE UNKNOWN

§ Identity

Operator
Country
US
Launch date
2025-01-06
Launch site
AFETR
Launch vehicle
Mass (kg)
RCS (m²)

Purposes: comms

External: N2YO · Heavens-Above · Gunter

§ Orbital elements

Epoch: 2026-05-25T04:22:12.066240Z

Period
94.27 min
Inclination
42.9985°
Eccentricity
0.0001552
Mean motion
15.27588427 rev/d
Perigee alt
482.0 km
Apogee alt
484.1 km
Semi-major
6,861.2 km
B*
4.5176e-4
RAAN
216.6701°
Arg perigee
265.5701°
Mean anomaly
94.4973°
Rev number
7,825

§ Raw data

STARLINK-327681 62503U 25003S   26145.18208410  .00012193  00000+0  45176-3 0  99992 62503  42.9985 216.6701 0001552 265.5701  94.4973 15.27588427 78254

JSON: /api/v1/satellites/62503 · /tle

For live sub-satellite position, see the globe view (requires WebGL).

§ Visibility from observer

Set your observer location to see the next 7 days of passes ≥ 10°. The values pass through the URL so the page stays shareable.

No JS? Fill the form by hand. The geolocation button needs JavaScript.